This is the latest recevied weather packets stored in our database for station/object K1LVA. If no packets are shown the sender has not sent any weather packets the latest 10 day(s).
| Time | Temp. | Humidity | Pressure | Rain* | Wind** | Luminosity | Snow |
|---|---|---|---|---|---|---|---|
| 1778158570 | 19.44° C | 99% | 1010.5 hPa | 0 mm | - | 85 W/m² | - |
| 1778158267 | 19.44° C | 99% | 1010.4 hPa | 0 mm | - | 83 W/m² | - |
| 1778157963 | 19.44° C | 99% | 1010.3 hPa | 0 mm | - | 109 W/m² | - |
| 1778157662 | 19.44° C | 99% | 1010.3 hPa | 0 mm | - | 119 W/m² | - |
| 1778157359 | 19.44° C | 99% | 1010.4 hPa | 0 mm | - | 102 W/m² | - |
| 1778157056 | 19.44° C | 99% | 1010.5 hPa | 0 mm | - | 89 W/m² | - |
| 1778156751 | 19.44° C | 99% | 1010.4 hPa | 0 mm | - | 83 W/m² | - |
| 1778156447 | 19.44° C | 99% | 1009.9 hPa | 0 mm | - | 84 W/m² | - |
| 1778156143 | 19.44° C | 99% | 1009.6 hPa | 0 mm | - | 73 W/m² | - |
| 1778155839 | 19.44° C | 99% | 1009.4 hPa | 0 mm | - | 72 W/m² | - |
| 1778155535 | 19.44° C | 99% | 1009.5 hPa | 0 mm | - | 73 W/m² | - |
| 1778155233 | 18.89° C | 99% | 1009.1 hPa | 0 mm | - | 66 W/m² | - |
| 1778154929 | 18.89° C | 99% | 1009.2 hPa | 0 mm | - | 62 W/m² | - |
| 1778154625 | 18.89° C | 99% | 1009.5 hPa | 0 mm | - | 59 W/m² | - |
| 1778154321 | 18.89° C | 99% | 1009.7 hPa | 0 mm | - | 45 W/m² | - |
| 1778154018 | 18.89° C | 99% | 1009.4 hPa | 0 mm | - | 23 W/m² | - |
| 1778153715 | 18.89° C | 99% | 1009.9 hPa | 0 mm | - | 23 W/m² | - |
| 1778153412 | 18.89° C | 99% | 1009.8 hPa | 1.27 mm | - | 19 W/m² | - |
| 1778153110 | 18.89° C | 99% | 1007.7 hPa | 1.27 mm | - | 14 W/m² | - |
| 1778152807 | 18.89° C | 99% | 1010 hPa | 0 mm | - | 10 W/m² | - |
| 1778152504 | 18.89° C | 99% | 1010.7 hPa | 0 mm | - | 10 W/m² | - |
| 1778152200 | 18.89° C | 99% | 1011.1 hPa | 1.78 mm | - | 8 W/m² | - |
| 1778151896 | 18.89° C | 99% | 1011.4 hPa | 1.78 mm | - | 4 W/m² | - |
| 1778151593 | 18.89° C | 99% | 1011.3 hPa | 0 mm | - | 2 W/m² | - |
| 1778151290 | 18.89° C | 99% | 1011.3 hPa | 0 mm | - | 1 W/m² | - |
* Rain latest hour (hover to see other rain measurements)
** Current wind speed in m/s (hover to see current wind gust speed)